Content
SEND FEEDBACK

Daily
Averages
Monthly
Summary
Turkmenistan

ASHGABAT, TURKMENISTAN


Home > Asia > Turkmenistan
Elevation: 236 meters     Latitude: 37 58N     Longitude: 058 20E

WEATHER
 
SELECT A DAY
Number of Records: 183,395;   Date Range: 3/15/97 - 12/17/14
 
SHARE

PRINT THIS DATA

[ ← Previous Day ]
WEATHER ALMANAC - 3 MAY, 2013
[ Next Day → ]
[ °F ]   °C
Weather ElementAverageHighLow
Temperature23.8 °C31 °C (2:00 pm)15 °C (4:00 am)
Dewpoint2.6 °C8.3 °C (8:00 am)-3 °C (9:00 pm)
Humidity26.3 %51 % (6:00 am)12 % (2:00 pm)
Barometer1016.3 hPa1017.3 hPa (8:00 am)1014.6 hPa (5:00 pm)
Wind Speed8.9 km/h18 km/h (5:00 pm)
Wind Gust25.3 km/h (3:00 am)
Weather ElementAverage
Visibility10 km
Wind DirectionSE (133.5 °)

Weather ElementTotal
Precipitation---
Cooling Degree Days4.7 (Base 18.3)
Growing Degree Days13 (Base 10)
Averaged from 32 records on 3 May, 2013
WEATHER CONDITIONS BREAKOUT
WIND DIRECTION BREAKOUT
WEATHER BY HOUR - 3 MAY, 2013
[ °F ]   °C
Local TimeTemperatureDewpointHumidityBarometerVisibilityWind DirectionWind SpeedGust SpeedPrecipitationEventsConditions
1:00 AM18 °C4 °C40 %1015.2 hPa10 kmNW (320°)7.2 km/hScattered Clouds
2:00 AM16.7 °C6.7 °C39 %1015.6 hPa9.7 kmWSW (240°)10.8 km/hScattered Clouds
2:00 AM16 °C5 °C48 %1015.2 hPa10 kmWSW (240°)10.8 km/hScattered Clouds
3:00 AM17 °C4 °C42 %1015.2 hPa10 kmSW (230°)7.2 km/h25.3 km/hScattered Clouds
4:00 AM15 °C4 °C48 %1015.2 hPa10 kmWSW (250°)10.8 km/hScattered Clouds
5:00 AM15 °C6.7 °C45 %1015.2 hPa9.7 kmWSW (250°)7.2 km/hMostly Cloudy
5:00 AM15 °C4 °C48 %1015.2 hPa10 kmWSW (250°)7.2 km/hMostly Cloudy
6:00 AM15 °C5 °C51 %1015.2 hPa10 kmVariable3.5 km/hMostly Cloudy
7:00 AM17 °C5 °C45 %1016.3 hPa10 kmVariable3.5 km/hMostly Cloudy
8:00 AM17.8 °C8.3 °C43 %1016.3 hPa9.7 kmCalmPartly Cloudy
8:00 AM21 °C4 °C33 %1017.3 hPa10 kmCalmMostly Cloudy
9:00 AM23 °C4 °C29 %1017.3 hPa10 kmNW (310°)14.3 km/hMostly Cloudy
10:00 AM26 °C1 °C20 %1017.3 hPa10 kmNorth (350°)7.2 km/hMostly Cloudy
11:00 AM26.1 °C5.6 °C17 %1015.9 hPa9.7 kmNNE (20°)3.5 km/hPartly Cloudy
11:00 AM28 °C2 °C19 %1017.3 hPa10 kmNNE (30°)7.2 km/hMostly Cloudy
12:00 PM30 °C0 °C14 %1017.3 hPa10 kmSE (140°)10.8 km/hScattered Clouds
12:30 PM30 °C0 °C14 %1017.3 hPa10 kmNorth (360°)10.8 km/hScattered Clouds
1:00 PM29 °C-1 °C14 %1017.3 hPa10 kmEast (80°)14.3 km/hMostly Cloudy
2:00 PM30 °C5 °C12 %1015.6 hPa9.7 kmNorth (10°)14.3 km/hMostly Cloudy
2:00 PM31 °C-2 °C12 %1017.3 hPa10 kmNNE (30°)14.3 km/hMostly Cloudy
3:00 PM31 °C-2 °C12 %1016.3 hPa10 kmNNE (20°)10.8 km/hMostly Cloudy
4:00 PM30 °C-1 °C13 %1016.3 hPa10 kmEast (80°)7.2 km/hMostly Cloudy
5:00 PM29.4 °C6.1 °C14 %1014.6 hPa9.7 kmENE (70°)14.3 km/hMostly Cloudy
5:00 PM30 °C-1 °C13 %1016.3 hPa10 kmENE (60°)18 km/hMostly Cloudy
6:00 PM30 °C-2 °C12 %1016.3 hPa10 kmEast (80°)10.8 km/hMostly Cloudy
7:00 PM30 °C-2 °C12 %1015.2 hPa10 kmVariable3.5 km/hMostly Cloudy
8:00 PM27.8 °C4.4 °C13 %1014.6 hPa9.7 kmENE (70°)10.8 km/hPartly Cloudy
8:00 PM27 °C-2 °C15 %1016.3 hPa10 kmENE (70°)10.8 km/hMostly Cloudy
9:00 PM25 °C-3 °C16 %1017.3 hPa10 kmNE (50°)3.5 km/hScattered Clouds
10:00 PM22 °C2 °C27 %1017.3 hPa10 kmSE (140°)7.2 km/hPartly Cloudy
11:00 PM20.6 °C7.2 °C30 %1016.9 hPa9.7 kmSSW (200°)10.8 km/hScattered Clouds
11:00 PM21 °C3 °C31 %1017.3 hPa10 kmSouth (190°)10.8 km/hPartly Cloudy
Hourly data recorded from UTAA, located 0 kilometers away from Ashgabat, Turkmenistan







STORIES FROM OUR PARTNERS